Tracking 28126 objects as of 1-Oct-2023
HD Live streaming from Space Station
objects crossing your sky now

STARLINK-1645

Track STARLINK-1645 now!
10-day predictions
STARLINK-1645 is classified as:


NORAD ID: 47622
Int'l Code: 2021-012C
Perigee: 553.5 km
Apogee: 555.2 km
Inclination: 53.1 °
Period: 95.6 minutes
Semi major axis: 6925 km
RCS: Unknown
Launch date: February 16, 2021
Source: United States (US)
Launch site: AIR FORCE EASTERN TEST RANGE (AFETR)
Your satellite tracking list
Your tracking list is empty




NASA's NSSDC Master Catalog

Two Line Element Set (TLE):
1 47622U 21012C   23273.74015999 -.00000738  00000-0 -30687-4 0  9996
2 47622  53.0533 111.2362 0001228  97.6647 262.4482 15.06397911145189
Source of the keplerian elements: AFSPC